Regional Weather Roundup
Issued by NWS Wakefield, VA

Home | Current Version | Previous Version | Graphics & Text | Print | Product List | Glossary On
Versions: 1 2 3 4 5 6 7 8 9 10 11 12 13 14 15 16 17 18 19 20 21 22 23 24 25 26 27 28 29 30 31 32 33 34 35 36 37 38 39 40 41 42 43 44 45 46 47
000
ASUS41 KAKQ 270815
RWRAKQ

REGIONAL WEATHER ROUNDUP
NATIONAL WEATHER SERVICE WAKEFIELD VA
400 AM EDT WED MAY 27 2015

Note: "fair" indicates few or no clouds below 12,000 feet with no
significant weather and/or obstructions to visibility. * = Denotes
station may not report precipitation (e.g., rain,snow,etc.),
thunder or fog.

VAZ042-051-052>054-056-270900-
NORTHERN VIRGINIA

CITY           SKY/WX    TMP DP  RH WIND       PRES   REMARKS
WASH NATIONAL  CLOUDY    75  68  78 S9        30.15F
DULLES         CLOUDY    72  66  81 S9        30.14S
FORT BELVOIR   MOCLDY    73  69  86 SE5       30.14F
QUANTICO       PTCLDY    75  68  78 SW12      30.15F
FREDERICKSBRG* PTCLDY    76  70  82 S8        30.14F
STAFFORD*      MOCLDY    73  67  83 S6        30.19S
WARRENTON      CLOUDY    73  69  89 S5        30.13F
CULPEPER*      MOCLDY    71  67  86 S6        30.14F
MANASSAS*      CLOUDY    72  70  94 SE5       30.14F
LEESBURG*      CLEAR     72  70  94 S9        30.14S
WINCHESTER     HAZE      66  61  82 CALM      30.12F VSB 1/4
FRONT ROYAL*   FAIR      66  64  94 CALM      30.11F
LURAY*         FAIR      70  70 100 CALM      30.13F
$$

VAZ048-049-060>072-079>083-270900-
CENTRAL AND SOUTH CENTRAL VIRGINIA

CITY           SKY/WX    TMP DP  RH WIND       PRES   REMARKS
RICHMOND       MOCLDY    72  68  87 S7        30.17F
CHESTERFIELD*  NOT AVBL
PETERSBURG*    PTCLDY    72  72 100 S5        30.18F
HANOVER        CLEAR     73  68  84 S10       30.18F
TAPPAHANNOCK*  CLEAR     73  64  75 S5        30.18F
QUINTON*       FAIR      72  68  87 S6        30.18S
CHARLOTTSVILLE PTCLDY    72  67  84 S6        30.13F
GORDONSVILLE*  CLOUDY    71  68  89 S3        30.13F
ORANGE*        CLOUDY    72  68  88 CALM      30.16F
LOUISA*        PTCLDY    72  68  88 S6        30.14F
BUMPASS*       FAIR      70  68  92 CALM      30.15F
FARMVILLE*     MOCLDY    72  71  98 S5        30.14S
CREWE*         FAIR      71  68  91 S6        30.16F
FORT PICKETT*  FAIR      70  68  94 S8        30.17F
CHASE CITY*    FAIR      73  73  98 S6        30.17S
CLARKSVILLE*   FAIR      70  68  94 S5        30.17S
SOUTH HILL*    MOCLDY    70  67  91 S7        30.23F
LAWRENCEVILLE* PTSUNNY   72  68  88 SE5       30.18F
EMPORIA*       MOCLDY    70  68  94 SE5       30.21F
$$

VAZ088>098-270900-
SOUTHEAST VIRGINIA

CITY           SKY/WX    TMP DP  RH WIND       PRES   REMARKS
NORFOLK        PTCLDY    71  64  78 S15       30.21F
VIRGINIA BEACH MOCLDY    72  65  78 S10       30.22F
NORFOLK NAVAL  MOCLDY    76  65  68 S9        30.22F
WEST POINT*    CLEAR     75  67  75 S5        30.20F
SALUDA*        PTSUNNY   73  67  83 S12G22    30.18F
NEWPORT NEWS   CLEAR     75  67  76 SW14      30.20F
LANGLEY AFB    PTCLDY    71  67  84 SW14      30.20F
FORT EUSTIS    CLEAR     71  71 100 VRB6      30.18F
WILLIAMSBURG*  CLEAR     73  70  88 S7        30.21F
HR EXEC AP*    PTSUNNY   72  64  78 S7        30.24S
FRANKLIN*      PTCLDY    69  66  92 S7        30.21F
WAKEFIELD      PTCLDY    72  67  84 S5        30.20F
$$

VAZ020-022-025-037-045-270900-
WEST CENTRAL AND SOUTHWEST VIRGINIA

CITY           SKY/WX    TMP DP  RH WIND       PRES   REMARKS
STAUNTON*      CLEAR     64  62  95 CALM      30.16F FOG
WAYNESBORO*    FAIR      65  64  97 CALM      30.15F
HOT SPRINGS VA MOCLDY    64  60  87 SW9       30.24S
LYNCHBURG      CLOUDY    68  67  96 S6        30.17F
DANVILLE       CLOUDY    70  64  81 SW7       30.18R
SOUTH BOSTON*  FAIR      71  66  86 MISG      30.17S
MARTINSVILLE   MOCLDY    69  62  80 CALM      30.20S
ROANOKE        CLOUDY    69  65  86 W3        30.17S
BLACKSBURG     MOCLDY    64  62  93 SE5       30.22S
DUBLIN*        MOCLDY    64  63  97 CALM      30.21R
MARION*        CLOUDY    64  62  91 SW6       30.23S
HILLSVILLE*    PTCLDY    62  61  95 S8        30.22S
RICHLANDS*     PTSUNNY   66  63  90 W8        30.21S
WISE*          MOCLDY    64  63  94 SW10G18   30.22F
ABINGDON*      CLOUDY    67  67  99 CALM      30.20S
$$

MDZ021>025-VAZ099-100-270900-
SOUTHERN MARYLAND AND THE DELMARVA PENINSULA

CITY           SKY/WX    TMP DP  RH WIND       PRES   REMARKS
PATUXENT RIVER CLEAR     73  67  81 SW14      30.16F
BAY BRIDGE APT   N/A    N/A N/A N/A S9        30.15F
LEONARDTOWN    NOT AVBL
DOVER          PTCLDY    70  70 100 S8        30.14F
GEORGETOWN     CLEAR     69  66  90 S10       30.19F
EASTON         PTCLDY    73  71  92 SW12      30.20F
CAMBRIDGE      MOCLDY    72  66  83 S6        30.17F
SALISBURY      CLEAR     70  66  87 S8        30.19F
OCEAN CITY     PTCLDY    66  63  90 S7        30.21F
WALLOPS ISLAND MOCLDY    67  66  97 S8        30.22F
ACCOMACK*      PTCLDY    72  68  88 S9        30.21F
$$

NCZ012>017-030>032-270900-
NORTH CENTRAL AND EASTERN NORTH CAROLINA

CITY           SKY/WX    TMP DP  RH WIND       PRES   REMARKS
ROANOKE RAPIDS PTSUNNY   70  68  94 S5        30.20F
RALEIGH        MOCLDY    72  67  84 S6        30.20S
ELIZABETH CITY CLOUDY    71  66  84 S7        30.24F
AHOSKIE*       PTCLDY    68  66  93 S6        30.22S
EDENTON*       CLOUDY    71  66  84 S8        30.24F
CURRITUCK*     CLOUDY    72  64  76 S3        30.25S
KILL DEVIL HLS PTCLDY    71  64  79 S5        30.24F
MANTEO         PTCLDY    72  65  80 SW14      30.26S
CAPE HATTERAS  PTCLDY    72  61  68 SW14      30.26F
TARBORO*       FAIR      71  68  90 S5        30.22F
GOLDSBORO      CLOUDY    72  70  94 CALM      30.19F
WASHINGTON     CLOUDY    71  67  87 S6        30.24F
GREENVILLE     CLOUDY    72  70  94 S8        30.23F
NEW BERN       CLOUDY    70  66  87 S5        30.25F
WILMINGTON     CLOUDY    74  70  87 S5        30.22F
$$

VAZ048-270900-
ELSEWHERE

CITY           SKY/WX    TMP DP  RH WIND       PRES   REMARKS
HARRISBURG PA  PTCLDY    72  65  78 SE6       30.11S
BALTIMORE      PTCLDY    70  66  87 S3        30.13F
ANNAPOLIS      PTCLDY    70  66  87 S5        30.14F
ANDREWS AFB    CLEAR     71  69  96 S7        30.15S
PHILADELPHIA   MOCLDY    71  65  81 S8        30.16F
HENDERSON NC   MOCLDY    71  66  84 S6        30.19S
GREENSBORO     MOCLDY    67  66  97 S6        30.19S
ROCKY MOUNT    MOCLDY    71  69  93 S3        30.21F
$$

VAZ100-270900-
MARINE

STATION/POSITION TIME  TEMP    WIND        PRES    WAVE   SWELL
                       AIR SEA DIR/SP/G            HT/PER HT/PER
                 (UTC) (F)     (DEG/KT/KT) (MB)    (FT/S) (FT/S)
BRANDYWINE LGT   0706      65  210/ 14/ 15 1022.3
CAPE MAY NJ      0706      70  170/  7/ 11 1022.0
LEWES DE         0706      63  210/  8/ 12 1022.2
15NM E FENWICK I 0750   64 61              1022.5F   4/ 5
OCEAN-CITY-INLET 0706      60  210/ 11/ 12 1022.9
WACHAPREAGUE VA  0700      73  230/  8/ 12 1023.3
THOMAS POINT MD  0800   69 67  170/ 12/ 13 1021.4F
GOOSES REEF MD   0800   72 68  220/ 10/ 14 1022.0F   1/ 2
COVE POINT MD    0700          210/ 12/ 14 1022.3
SOLOMONS ISLAND  0706      71                N/A
BISHOPS HEAD MD  0706      71  190/ 16/ 19 1021.7
PINEY POINT MD   0700          230/ 16/ 18   N/A
CAMBRIDGE MD     0706      71  180/  6/  9 1021.7
LEWISETTA VA     0700      74              1021.7
RAPPAHANNOCK LGT 0700          190/ 16/ 17 1023.4F
STINGRAY PT      0800   73 71  220/ 14/ 16 1022.2F   2/ 3
YORK RVR RNG VA  0700          220/ 16/ 19 1022.2
YORKTOWN VA      0700      71  210/  9/ 12 1022.6
JAMESTOWN VA     0800   72 75  180/  8/ 10 1021.5F
DOMINION TERM VA 0700          210/ 14/ 17 1023.3
KIPTOPEKE VA     0700      76  200/ 12/ 13   N/A
CHES BAY BRIDGE  0700      70  180/ 14/ 18 1022.9
CAPE HENRY VA    0700          190/  9/ 14 1022.3
CHESAPEAKE LGHT  0700   67     200/ 18/ 19 1024.3S
WILLOUBY STN VA  0700          210/ 16/ 20 1023.8
CAPE HENRY BUOY  0728      63                N/A     2/ 5
1ST LANDING BUOY 0800      69              1022.8F
CAPE CHARLES BUO 0726      65                N/A     2/ 6   2/ 9
OFFSHORE WE BUOY 0711      65                N/A     3/ 6   2/ 9
64NM E OF VA BCH 0750   65 62  180/ 10/ 10 1024.2F   3/ 5   3/ 5
DUCK PIER NC     0700      57  200/ 12/ 15 1023.4
44100 DUCK FRF   0724      63                N/A     3/ 5
44056 DUCK FRF   0711      61                N/A     2/ 5
OREGON INLET NC  0700      76  190/ 17/ 19 1024.9
HATTERAS NC      0700      75  180/  5/ 10 1024.8
DIAMOND SHLS NC  0750   74 78  190/ 12/ 16 1024.9F   3/ 5   2/ 7
CAPE LOOKOUT NC  0800   73     200/  5/  6 1024.1F
$$



USA.gov is the U.S. government's official web portal to all federal, state and local government web resources and services.